www.pogodaiklimat.ru

Погода и климат >> Архив погоды >> Аргентина >> San Miguel de Tucuman


ПОГОДА в San Miguel de Tucuman

  • Прогноз погоды в San Miguel de Tucuman
  • Монитор погоды в San Miguel de Tucuman
  • Климат города

АРХИВ ПОГОДЫ в San Miguel de Tucuman

Время (UTC), дата Ветер
(напр.,м/с)
 
Видим.   Явления Облачность Т
(С)
Тd
(С)
f
(%)
Тe
(С)
Тes
(С)
Комфортность P
(гПа)
Po
(гПа)
Тmin
(С)
Tmax
(С)
R
(мм)
R24
(мм)
S
(см)
09 17.08 С 4 6000 м дым ясно +9.6 +6.7 82 +7 +7 1015.8 964.0
12 17.08 СЗ 4 7000 м дым ясно +13.2 +7.0 66 +12 +13 1016.6 964.6 +8.9 +17.4
15 17.08 СЗ 3 7000 м дым ясно +22.3 +7.6 39 +23 +34 комфорт 1015.3 963.6
18 17.08 В 3 6000 м дым ясно +25.2 +7.7 33 +25 +35 комфорт 1012.3 961.0
21 17.08 Ю 2 7000 м дым ясно +26.3 +8.7 33 +27 +28 жарко 1012.1 960.8
00 18.08 нст 1 5000 м дым ясно +19.3 +10.5 57 +21 +21 комфорт 1012.7 961.0 +12.6 +26.9
03 18.08 С 4 8000 м дым ясно +14.6 +8.9 69 +13 +13 1011.7 960.5
06 18.08 З 3 12 км ясно +15.2 +8.3 63 +15 +15 1009.4 958.6
09 18.08 С 5 12 км ясно +15.0 +8.1 63 +14 +14 1006.6 956.0
12 18.08 С 5 12 км ясно +17.1 +8.4 57 +17 +18 1005.9 955.0 +11.6 +19.3
15 18.08 З 3 12 км ясно +25.0 +10.8 41 +26 +37 жарко 1003.7 953.0
18 18.08 СВ 2 9000 м дым ясно +30.3 +10.2 29 +30 +41 жарко 998.5 948.6
21 18.08 З 6 3500 м дым ясно +28.1 +11.6 36 +29 +29 жарко 996.8 946.9
00 19.08 З 1 4000 м дым ясно +21.2 +11.0 52 +23 +23 комфорт 999.8 949.3 +16.6 +31.9
03 19.08 С 4 4000 м дым ясно +15.3 +10.7 74 +14 +14 1000.2 949.8
06 19.08 С 4 1800 м дым 5/5 1050 м
[Sc]
+13.6 +9.4 76 +12 +12 999.6 949.6
09 19.08 ЮЗ 2 4000 м дым ясно +15.4 +9.4 67 +16 +16 999.7 949.7
12 19.08 З 2 8000 м дым ясно +16.2 +9.9 66 +16 +18 1005.0 954.2 +13.2 +21.2
15 19.08 Ю 9 8000 м дым ясно +23.2 +12.7 52 +26 +27 жарко 1010.1 959.0
18 19.08 Ю 8 8000 м дым 9/9 900 м
[Sc]
+23.8 +10.1 42 +25 +25 комфорт 1009.5 958.5
21 19.08 ЮВ 5 6000 м дым 10/4 1200 м
[Sc Ac As]
+19.1 +7.8 48 +19 +20 1012.5 961.0
00 20.08 ЮВ 2 6000 м дым 10/10 1200 м
[Sc]
+17.7 +8.0 53 +18 +18 1017.6 965.8 +16.2 +24.2
03 20.08 В 2 8000 м дым 10/10 1050 м
[Sc]
+16.3 +7.6 56 +17 +17 1020.5 969.0
06 20.08 В 3 9000 м дым ясно +13.2 +7.0 66 +12 +12 1021.8 970.1
09 20.08 СЗ 2 12 км 10/5 1200 м
[Sc Ac As]
+11.8 +7.0 72 +11 +11 1024.6 972.2
12 20.08 штиль 0 12 км 3/0
[Ac trans]
+11.5 +6.4 71 +11 +13 1028.4 975.7 +10.8 +17.7
15 20.08 В 6 12 км 3/0
[Ac trans]
+19.2 -0.8 26 +19 +23 1028.5 976.2
18 20.08 СВ 7 12 км 1/0
[Ac trans]
+21.5 -2.1 20 +21 +24 комфорт 1025.4 973.3
21 20.08 В 6 12 км 1/0
[Ac trans]
+22.1 -3.3 18 +21 +21 комфорт 1022.8 970.8
00 21.08 С 4 10 км ясно +15.1 +1.1 39 +14 +14 1023.5 970.8 +11.5 +22.6
03 21.08 С 3 12 км ясно +12.2 +0.6 45 +11 +11 1023.6 971.3
06 21.08 С 2 12 км ясно +9.8 +0.9 54 +9 +9 1024.1 971.8
09 21.08 З 2 12 км ясно +8.6 +4.2 74 +7 +7 1022.7 970.4
12 21.08 штиль 0 12 км ясно +10.3 +4.5 67 +10 +12 1024.5 971.7 +6.0 +15.1
15 21.08 штиль 0 8000 м дым ясно +18.6 +1.4 32 +19 +35 опасность
простуды
1023.4 971.0
21 21.08 СВ 11 5000 м дым ясно +23.2 -0.8 20 +22 +22 комфорт 1017.8 965.8
00 22.08 СВ 2 7000 м дым ясно +16.6 +4.2 44 +17 +17 1018.1 965.7 +10.3 +24.5
03 22.08 С 4 9000 м дым ясно +15.2 +0.9 38 +14 +14 1016.7 965.0
06 22.08 С 5 12 км ясно +13.4 +1.2 43 +12 +12 1013.5 962.2
09 22.08 С 2 12 км ясно +12.0 +1.0 47 +11 +11 1010.0 958.8
12 22.08 С 3 12 км 1/0
[Cs]
+9.3 +2.5 62 +8 +9 1010.0 957.8 +6.6 +16.6
15 22.08 СВ 4 9000 м дым ясно +20.0 +0.6 27 +20 +28 1006.9 955.8
18 22.08 ЮЗ 4 7000 м дым 1/0
[Cs]
+25.6 +2.4 22 +24 +32 комфорт 1002.2 951.7
21 22.08 ЮЗ 4 3000 м дым 9/0
[Ac trans Cs]
+23.2 +6.7 35 +24 +25 комфорт 1000.1 949.4
00 23.08 С 2 3500 м дым 6/0
[Cs]
+17.3 +6.0 47 +18 +18 1002.7 951.0 +9.3 +26.4
03 23.08 С 4 4000 м дым ясно +10.5 +5.7 72 +8 +8 1002.7 951.4
06 23.08 З 2 4000 м дым ясно +10.2 +3.9 65 +9 +9 1001.7 950.9
09 23.08 С 3 4000 м дым ясно +9.6 +3.9 68 +7 +7 1001.9 950.8
12 23.08 СЗ 3 6000 м дым 9/0
[Cs]
+11.3 +3.4 58 +10 +11 1004.7 953.2 +7.4 +17.3
15 23.08 ЮЗ 5 5000 м дым 9/0
[Cs]
+19.6 +5.4 39 +20 +25 1006.6 955.0
18 23.08 Ю 3 4000 м дым 9/0
[Cs]
+24.6 +6.5 31 +25 +32 комфорт 1004.9 953.8
21 23.08 Ю 3 4000 м дым 8/0
[Cs]
+25.2 +6.1 29 +25 +26 комфорт 1006.5 955.4
03 24.08 штиль 0 5000 м дым 5/0
[Cs]
+14.6 +5.7 55 +14 +14 1010.4 959.0

 

Местоположение метеостанции San Miguel de Tucuman (Аргентина): широта -26.85 долгота -65.09 высота над уровнем моря 450 м.

В архиве по умолчанию представлена погода в San Miguel de Tucuman за последнюю неделю. Архивные данные за месяц целиком и за предыдущие месяцы, начиная с января 2011 года, Вы можете получить, выбрав интересующий диапазон дат из раскрывающегося списка и нажав кнопку "Ввод!".

Внимание! Время в таблицах - всемирное. Для получения местного времени необходимо прибавить поправку, которая в San Miguel de Tucuman равна -3 ч.

Смотрите также архив погоды в соседних городах и на ближайших метеорологических станциях:

Погода в Santiago del Estero (Аргентина) (128 км)
Погода в San Fernando del Valle de Catamarca (Аргентина) (206 км)
Погода в Salta (Аргентина) (226 км)
Погода в San Salvador de Jujuy (Аргентина) (275 км)
Погода в La Rioja (Аргентина) (328 км)
Погода в Villa de Maria del Rio Seco (Аргентина) (366 км)
Погода в Chamical (Аргентина) (407 км)
Погода в San Ramon de la Nueva Oran (Аргентина) (419 км)
Погода в Ceres (Аргентина) (456 км)
Погода в Presidencia Roque Saenz Pena (Аргентина) (458 км)

Пояснения к столбцам:

Ветер - указаны скорость ветра в м/с - средняя за 10 мин, порывы в срок и между сроками (в фигурных скобках) и направление, откуда дует ветер: С - северный, СВ - северо-восточный, В - восточный, ЮВ - юго-восточный, Ю - южный, ЮЗ - юго-западный, З - западный, СЗ - северо-западный.
Видимость - горизонтальная дальность видимости в метрах или километрах. При видимости от 1 до 10 км при отсутствии осадков обычно наблюдается дымка, при ухудшении видимости до 1 км и менее - туман. В сухую погоду видимость может ухудшаться дымом, пылью или мглою.
Явления - указаны атмосферные явления, наблюдавшиеся в срок или в последний час перед сроком; фигурными скобками обозначены явления, наблюдавшиеся между сроками (за 1-3 часа до срока); квадратными скобками обозначены град или гололедные отложения с указанием их диаметра в мм.
Облачность - указаны через наклонную черту общая и нижняя облачность в баллах и высота нижней границы облаков в метрах; квадратными скобками обозначены формы облаков: Ci - перистые, Cs - перисто-слоистые, Cc - перисто-кучевые, Ac - высококучевые, As - высокослоистые, Sc - слоисто-кучевые, Ns - слоисто-дождевые, Cu - кучевые, Cb - кучево-дождевые. Подробнее классификацию облаков см. в Атласе облаков (PDF).
T - Температура воздуха - температура, измеренная на высоте 2 м над землей.
Td - Температура точки росы - температура, при понижении до которой содержащийся в воздухе водяной пар достигнет насыщения.
f - Относительная влажность воздуха - влажноcть воздуха, измеренная на высоте 2 м над землей.
Te - Эффективная температура - температура, которую ощущает одетый по сезону человек в тени. Характеристика душности погоды. При расчете учитывается влияние влажности воздуха и скорости ветра на теплоощущения человека.
Tes - Эффективная температура на солнце - температура, которую ощущает человек, с поправкой на солнечный нагрев. Характеристика знойности погоды. Зависит от высоты солнца над горизонтом, облачности и скорости ветра. Ночью, в пасмурную погоду, а также при ветре 12 м/с и более поправка равна нулю.
P - Атмосферное давление - приведенное к уровню моря атмосферное давление.
Po - Атмосферное давление - измеренное на уровне метеостанции атмосферное давление.
Tmin - Минимальная температура - минимум температуры воздуха на высоте 2 м над землей.
Tmax - Максимальная температура - максимум температуры воздуха на высоте 2 м над землей.
R - Количество осадков - Количество выпавших осадков за период времени, мм. При наведении курсора мыши на число - период времени, за который выпало указанное количество осадков.
R24 - Количество осадков - Количество выпавших осадков за 24 часа, мм.
S - Снежный покров - Высота снежного покрова, см. При наведении курсора мыши на число - состояние снежного покрова и степень покрытия местности в баллах.